DW6282 Weather Reports


Display with metric or nautical units.
time (UTC)temp
F
wind
direction
speed
MPH
gust
MPH
rain 1hr
in
rain 24hr
in
rain mn
in
humidity
%
barometer
mb
20260831174525 89 340 0.0 2.0 0.00 0.00 0.00 79 1015.0
20260831173014 88 220 0.0 3.0 0.00 0.00 0.00 80 1015.2
20260831171513 87 187 0.0 1.0 0.00 0.00 0.00 81 1015.2
20260831170011 84 159 0.0 2.0 0.00 0.00 0.00 83 1015.3
20260831164512 83 198 2.0 5.0 0.00 0.00 0.00 80 1015.5
20260831163007 86 211 1.0 5.0 0.00 0.00 0.00 83 1015.6
20260831161505 85 19 0.0 3.0 0.00 0.00 0.00 83 1015.4
20260831160007 85 1 2.0 3.0 0.00 0.00 0.00 84 1015.4
20260831154504 85 11 0.0 4.0 0.00 0.00 0.00 83 1015.3
20260831153005 86 5 1.0 4.0 0.00 0.00 0.00 83 1015.3
20260831151501 87 13 0.0 5.0 0.00 0.00 0.00 82 1015.3
20260831150058 85 5 1.0 4.0 0.00 0.00 0.00 83 1015.2
20260831144556 84 8 1.0 2.0 0.00 0.00 0.00 85 1015.1
20260831143110 84 8 0.0 5.0 0.00 0.00 0.00 87 1015.2
20260831141611 84 359 2.0 4.0 0.00 0.00 0.00 86 1015.1
20260831140054 83 173 1.0 2.0 0.00 0.00 0.00 87 1015.0
20260831134546 81 172 0.0 1.0 0.00 0.00 0.00 91 1014.7
20260831133043 79 172 0.0 0.0 0.00 0.00 0.00 94 1014.6
20260831131541 78 173 0.0 0.0 0.00 0.00 0.00 93 1014.6
20260831130043 78 173 0.0 0.0 0.00 0.00 0.00 93 1014.2
20260831124539 78 173 0.0 0.0 0.00 0.00 0.00 94 1014.1
20260831123036 78 172 0.0 0.0 0.00 0.00 0.00 94 1013.9
20260831121536 78 173 0.0 0.0 0.00 0.00 0.00 94 1013.7
20260831120035 78 172 0.0 1.0 0.00 0.00 0.00 94 1013.7
20260831114539 78 172 0.0 1.0 0.00 0.00 0.00 95 1013.4
20260831113033 77 172 0.0 0.0 0.00 0.00 0.00 94 1013.3
20260831111532 78 173 0.0 0.0 0.00 0.00 0.00 93 1013.3
20260831110034 78 172 0.0 0.0 0.00 0.00 0.00 93 1013.2
20260831104533 78 173 0.0 0.0 0.00 0.00 0.00 94 1013.3
20260831103031 78 172 0.0 0.0 0.00 0.00 0.00 94 1013.5
20260831101531 78 172 0.0 0.0 0.00 0.00 0.00 94 1013.3
20260831100029 77 172 0.0 0.0 0.00 0.00 0.00 94 1013.5
20260831094529 77 173 0.0 0.0 0.00 0.00 0.00 95 1013.5
20260831093028 77 172 0.0 0.0 0.00 0.00 0.00 94 1013.3
20260831091527 77 172 0.0 0.0 0.00 0.00 0.00 94 1013.2
20260831090027 77 172 0.0 0.0 0.00 0.00 0.00 94 1013.2
20260831084526 77 172 0.0 0.0 0.00 0.00 0.00 94 1013.2
20260831083024 77 172 0.0 0.0 0.00 0.00 0.00 94 1013.4
20260831081523 77 172 0.0 0.0 0.00 0.00 0.00 94 1013.5
20260831080021 77 173 0.0 0.0 0.00 0.00 0.00 93 1013.6
20260831074620 77 172 0.0 0.0 0.00 0.00 0.00 93 1013.6
20260831073024 77 172 0.0 0.0 0.00 0.00 0.00 92 1013.5
20260831071515 78 173 0.0 0.0 0.00 0.00 0.00 92 1013.7
20260831070026 78 172 0.0 0.0 0.00 0.00 0.00 92 1013.7
20260831064513 78 172 0.0 0.0 0.00 0.00 0.00 91 1013.8
20260831063014 79 172 0.0 0.0 0.00 0.00 0.00 90 1014.0
20260831061508 79 173 0.0 0.0 0.00 0.00 0.00 89 1014.0
20260831060006 80 173 0.0 0.0 0.00 0.00 0.00 89 1014.0
20260831054513 80 172 0.0 0.0 0.00 0.00 0.00 88 1013.9
20260831053003 81 170 0.0 0.0 0.00 0.00 0.00 87 1013.8
20260831051504 81 170 0.0 1.0 0.00 0.00 0.00 87 1013.9
20260831050101 81 170 0.0 0.0 0.00 0.00 0.00 86 1013.8
20260831044600 81 170 0.0 0.0 0.00 0.00 0.00 86 1013.8
20260831043058 81 170 0.0 0.0 0.00 0.00 0.00 85 1013.6
20260831041602 81 170 0.0 1.0 0.00 0.00 0.00 85 1013.8
20260831040057 82 170 0.0 1.0 0.00 0.00 0.00 84 1013.6
20260831034558 82 192 0.0 2.0 0.00 0.00 0.00 84 1013.4
20260831033056 82 195 0.0 0.0 0.00 0.00 0.00 83 1013.4
20260831031555 82 195 0.0 1.0 0.00 0.00 0.00 83 1013.3
20260831030111 83 195 0.0 1.0 0.00 0.00 0.00 82 1013.2
20260831024633 83 203 0.0 3.0 0.00 0.00 0.00 82 1013.1
20260831023053 83 179 0.0 0.0 0.00 0.00 0.00 82 1012.8
20260831021554 84 179 0.0 2.0 0.00 0.00 0.00 81 1012.6
20260831020052 84 163 0.0 2.0 0.00 0.00 0.00 80 1012.4
20260831014551 85 167 0.0 2.0 0.00 0.00 0.00 80 1012.3
20260831013109 85 189 0.0 3.0 0.00 0.00 0.00 79 1012.4
20260831011551 85 198 0.0 3.0 0.00 0.00 0.00 78 1012.3
20260831010049 86 192 0.0 2.0 0.00 0.00 0.00 78 1012.3
20260831004550 87 215 0.0 4.0 0.00 0.00 0.00 77 1012.3
20260831003048 87 200 1.0 6.0 0.00 0.00 0.00 76 1012.2
20260831001548 88 204 1.0 5.0 0.00 0.00 0.00 75 1012.2
20260831000047 89 196 2.0 7.0 0.00 0.00 0.00 73 1012.4
20260830234547 90 196 2.0 6.0 0.00 0.00 0.00 70 1012.1
20260830233047 91 205 4.0 7.0 0.00 0.00 0.00 70 1012.1
20260830231545 93 173 4.0 10.0 0.00 0.00 0.00 68 1012.2
20260830230043 93 196 2.0 10.0 0.00 0.00 0.00 68 1012.2
20260830224544 94 208 2.0 7.0 0.00 0.00 0.00 65 1012.2
20260830223042 94 218 3.0 9.0 0.00 0.00 0.00 66 1012.2
20260830221546 95 182 3.0 8.0 0.00 0.00 0.00 64 1012.2
20260830220043 95 113 3.0 9.0 0.00 0.00 0.00 63 1012.1
20260830214540 96 227 2.0 9.0 0.00 0.00 0.00 63 1012.1
20260830213039 97 221 3.0 10.0 0.00 0.00 0.00 61 1012.1
20260830211537 98 197 2.0 8.0 0.00 0.00 0.00 59 1012.3
20260830210036 98 209 2.0 7.0 0.00 0.00 0.00 57 1012.3
20260830204540 98 208 2.0 8.0 0.00 0.00 0.00 58 1012.5
20260830203042 99 206 0.0 5.0 0.00 0.00 0.00 59 1012.7
20260830201542 98 184 0.0 3.0 0.00 0.00 0.00 63 1013.0
20260830200030 97 207 0.0 3.0 0.00 0.00 0.00 67 1013.1
20260830194528 99 139 0.0 2.0 0.00 0.00 0.00 60 1013.3
20260830193026 99 214 1.0 10.0 0.00 0.00 0.00 63 1013.5
20260830191525 97 187 0.0 5.0 0.00 0.00 0.00 63 1013.7
20260830190028 97 225 0.0 7.0 0.00 0.00 0.00 63 1014.0
20260830184516 98 181 0.0 7.0 0.00 0.00 0.00 63 1014.2
20260830183013 97 192 2.0 5.0 0.00 0.00 0.00 61 1014.4
20260830181511 97 259 0.0 1.0 0.00 0.00 0.00 63 1014.6
20260830180011 96 279 0.0 3.0 0.00 0.00 0.00 68 1015.0